Regional Weather Roundup
Issued by NWS

Home | Current Version | Previous Version | Text Only | Print | Product List | Glossary Off
Versions: 1 2 3 4 5 6 7 8 9 10 11 12 13 14 15 16 17 18 19 20 21 22 23 24 25 26 27 28 29 30 31 32 33 34 35 36 37 38 39 40 41 42 43 44 45 46 47 48 49 50

000
ASUS45 KPSR 011810
RWRAZ

ARIZONA HOURLY REGIONAL WEATHER ROUNDUP
NATIONAL WEATHER SERVICE PHOENIX AZ
1100 AM MST SAT AUG 01 2015

NOTE: FAIR INDICATES FEW OR NO CLOUDS BELOW 12,000 FEET WITH NO
SIGNIFICANT WEATHER AND/OR OBSTRUCTIONS TO VISIBILITY.

AZZ001>003-036-011900-
NORTHWEST ARIZONA

CITY           SKY/WX    TMP DP  RH WIND       PRES   REMARKS
BULLHEAD CITY  CLOUDY    86  68  54 E3        29.97S
KINGMAN        CLOUDY    82  55  39 W18       30.14R
6HR MIN TEMP:  78; 6HR MAX TEMP:  84; 6HR PCP: TRACE;

$$

AZZ004>008-015-016-018-011900-
NORTH CENTRAL ARIZONA

CITY           SKY/WX    TMP DP  RH WIND       PRES   REMARKS
GRAND CANYON   CLOUDY    67  58  72 SE5       30.36S
6HR MIN TEMP:  59; 6HR MAX TEMP:  67; 6HR PCP:  0.06;

WILLIAMS       CLOUDY    70  52  52 CALM      30.41F
PRESCOTT       CLOUDY    79  59  50 NE10      30.23S
6HR MIN TEMP:  67; 6HR MAX TEMP:  79; 6HR PCP: TRACE;

FLAGSTAFF      CLOUDY    68  53  58 SE5       30.38R
6HR MIN TEMP:  57; 6HR MAX TEMP:  70; 6HR PCP: TRACE;

PAYSON         PTSUNNY   81  57  44 SW7       30.23F
PAGE           CLOUDY    84  55  36 N7        30.16S
6HR MIN TEMP:  76; 6HR MAX TEMP:  84; 6HR PCP: TRACE;

$$

AZZ009>014-017-011900-
NORTHEAST ARIZONA

CITY           SKY/WX    TMP DP  RH WIND       PRES   REMARKS
WINSLOW        PTSUNNY   81  57  43 E7        30.21F
6HR MIN TEMP:  68; 6HR MAX TEMP:  81;

SAINT JOHNS    MOSUNNY   80  56  43 VRB7      30.24F
6HR MIN TEMP:  60; 6HR MAX TEMP:  80;

SHOW LOW       PTSUNNY   75  52  43 S13       30.31S
$$

AZZ023-011900-
GREATER PHOENIX AREA

CITY           SKY/WX    TMP DP  RH WIND       PRES   REMARKS
PHOENIX        MOSUNNY   94  68  42 VRB7      29.91F
6HR MIN TEMP:  80; 6HR MAX TEMP:  95;

GLENDALE       PTSUNNY   93  64  38 VRB5      29.93F
LUKE AFB       PTSUNNY   93  66  40 W3        29.91F
DEER VALLEY    MOSUNNY   94  62  34 SW6       29.93F
6HR MIN TEMP:  82; 6HR MAX TEMP:  94;

SCOTTSDALE     MOSUNNY   94  64  37 VRB6      29.95F
6HR MIN TEMP:  81; 6HR MAX TEMP:  94;

MESA-GATEWAY   MOSUNNY   93  63  36 CALM      29.95F
CHANDLER       MOSUNNY   93  64  38 W8        29.93F
$$

AZZ027-028-011900-
SOUTHWEST MARICOPA COUNTY AND PINAL COUNTY

CITY           SKY/WX    TMP DP  RH WIND       PRES   REMARKS
CASA GRANDE    SUNNY     90  70  51 CALM      29.94S
6HR MIN TEMP:  75; 6HR MAX TEMP:  90;

GILA BEND      PTSUNNY   94  62  34 N7        29.90S
6HR MIN TEMP:  81; 6HR MAX TEMP:  95;

$$

AZZ503-504-507>509-011900-
SOUTHEAST ARIZONA

CITY           SKY/WX    TMP DP  RH WIND       PRES   REMARKS
TUCSON         SUNNY     91  60  35 S7        30.03F
6HR MIN TEMP:  74; 6HR MAX TEMP:  93;

DAVIS-MONTHAN  SUNNY     90  61  37 SW7       30.02F
6HR MIN TEMP:  72; 6HR MAX TEMP:  91;

NOGALES        PTSUNNY   86  62  44 CALM      30.12S
6HR MIN TEMP:  65; 6HR MAX TEMP:  86;

SIERRA VISTA   MOSUNNY   83  64  52 NE9       30.19S
6HR MIN TEMP:  64; 6HR MAX TEMP:  83;

DOUGLAS          N/A    N/A N/A N/A MISG      30.14S
SAFFORD        MOSUNNY   89  59  36 S7        30.06F
6HR MIN TEMP:  71; 6HR MAX TEMP:  90;

$$

AZZ020-021-025-026-031-011900-
SOUTHWEST ARIZONA

CITY           SKY/WX    TMP DP  RH WIND       PRES   REMARKS
YUMA           MOSUNNY  104  58  21 S5        29.85S HX 104
6HR MIN TEMP:  91; 6HR MAX TEMP: 105;

$$

CAZ031-033-041-043-047-048-061-011900-
SOUTHERN CALIFORNIA

CITY           SKY/WX    TMP DP  RH WIND       PRES   REMARKS
DOWNTOWN L.A.  SUNNY     80  63  55 CALM      29.96F
6HR MIN TEMP:  68; 6HR MAX TEMP:  80;

L.A. AIRPORT   MOSUNNY   73  63  70 W8        29.98S
6HR MIN TEMP:  67; 6HR MAX TEMP:  74;

SAN DIEGO      CLOUDY    74  62  66 VRB6      29.99F
6HR MIN TEMP:  70; 6HR MAX TEMP:  74;

BURBANK        SUNNY     77  62  59 SE8       29.97F
6HR MIN TEMP:  67; 6HR MAX TEMP:  78;

ONTARIO        MOSUNNY   80  62  54 VRB3      29.97F
6HR MIN TEMP:  66; 6HR MAX TEMP:  80;

RIVERSIDE      SUNNY     79  63  57 VRB5      29.97F
6HR MIN TEMP:  67; 6HR MAX TEMP:  79;

PALM SPRINGS   SUNNY    100  48  17 SE8       29.88F
6HR MIN TEMP:  80; 6HR MAX TEMP: 100;

EL CENTRO NAS  MOSUNNY  101  56  22 SE7       29.85F HX 100
6HR MIN TEMP:  77; 6HR MAX TEMP: 101;

IMPERIAL       MOSUNNY  100  57  23 CALM      29.83F
6HR MIN TEMP:  80; 6HR MAX TEMP: 101;

BLYTHE         PTSUNNY   98  61  29 NE8       29.89S
6HR MIN TEMP:  85; 6HR MAX TEMP:  98;

NEEDLES        CLOUDY    90  61  37 E15       29.97R
6HR MIN TEMP:  90; 6HR MAX TEMP:  93;

$$

NVZ020-UTZ003-011900-
SOUTHERN NEVADA-UTAH

CITY           SKY/WX    TMP DP  RH WIND       PRES   REMARKS
LAS VEGAS      CLOUDY    87  58  37 S18G31    29.98R
6HR MIN TEMP:  87; 6HR MAX TEMP:  93;

SALT LAKE CITY PTSUNNY   88  33  14 W3        30.12F
6HR MIN TEMP:  65; 6HR MAX TEMP:  88;

$$

NMZ009-TXZ055-011900-
NEW MEXICO-WEST TEXAS

CITY           SKY/WX    TMP DP  RH WIND       PRES   REMARKS
ALBUQUERQUE    MOSUNNY   80  55  42 CALM      30.26F
6HR MIN TEMP:  68; 6HR MAX TEMP:  80;

EL PASO        MOSUNNY   88  56  33 CALM      30.13F
6HR MIN TEMP:  75; 6HR MAX TEMP:  89;

$$


........................KEY........................
SKY/WX - SKY CONDITION/WEATHER
TMP    - TEMPERATURE IN FAHRENHEIT
DP     - DEW POINT IN FAHRENHEIT
RH     - RELATIVE HUMIDITY IN PERCENT
WIND   - DIRECTION AND SPEED IN MILES PER HOUR (MPH)
VRB    - VARIABLE WIND DIRECTION
PRES   - MEAN SEA LEVEL PRESSURE IN INCHES OF MERCURY
         F - FALLING PRESSURE   R - RISING PRESSURE
         S - STEADY PRESSURE
VSB    - VISIBILITY IN MILES
HX     - HEAT INDEX IN FAHRENHEIT
WCI    - WIND CHILL INDEX IN FAHRENHEIT
TC     - TEMPERATURE IN CELSIUS WHICH IS ALSO KNOWN AS
         TEMPERATURE IN CENTIGRADE
AFB    - AIR FORCE BASE
         LUKE AFB IS LUKE AIR FORCE BASE
         DAVIS-MONTHAN IS DAVIS-MONTHAN AIR FORCE BASE
NAS    - NAVAL AIR STATION
         EL CENTRO NAS IS EL CENTRO NAVAL AIR STATION
N/A    - NOT AVAILABLE




USA.gov is the U.S. government's official web portal to all federal, state and local government web resources and services.